EHI
0 0 0 0 0 0 0 0 0 0 0 0 0 0 0 1 1 2 8 24 35 31 24 24 25 20 14 9 5 3 3 3 2 1 0 0 0 0 0 0 1 0 0 0 0 0 0 0 0
0 0 0 0 0 0 0 0 0 0 0 0 0 0 0 1 1 2 9 24 32 28 21 21 24 21 15 9 4 3 3 3 2 1 1 0 0 0 0 1 1 1 0 0 0 0 0 0 0
0 0 0 0 0 0 0 0 0 0 0 0 0 0 1 2 2 3 12 25 30 25 21 22 25 23 17 10 5 2 2 2 2 2 1 0 0 1 1 1 0 1 1 1 0 0 0 0 0
0 0 0 0 0 0 0 0 0 0 0 0 0 1 3 5 6 7 15 25 28 26 24 25 28 26 18 12 6 3 2 3 3 2 1 1 2 1 1 0 0 1 2 1 0 0 0 0 0
0 0 0 0 0 0 0 0 0 0 0 0 0 1 5 9 10 12 18 25 27 27 26 26 30 29 21 14 9 5 4 5 4 3 2 2 3 2 1 1 1 1 1 1 0 0 0 0 0
0 0 0 0 0 0 0 0 0 0 0 0 0 2 5 9 12 15 20 25 27 27 26 26 27 25 21 16 12 9 7 7 6 5 4 4 3 2 1 2 2 1 0 0 0 0 0 0 0
0 0 0 0 0 0 0 0 0 0 0 0 0 1 4 8 13 17 22 25 27 28 26 24 21 18 17 16 13 10 8 8 8 7 5 3 2 1 0 1 1 1 0 0 0 0 0 0 0
0 0 0 0 0 0 0 0 0 0 0 0 0 1 4 10 16 21 26 28 28 27 25 20 16 14 14 14 12 8 7 8 8 5 2 1 1 0 0 0 0 0 0 0 0 0 0 0 0
0 0 0 0 0 0 0 0 0 0 0 0 2 3 7 14 20 25 28 28 28 27 22 17 14 13 13 12 9 7 5 5 5 2 0 0 0 0 0 0 0 0 0 0 0 0 0 0 0
0 0 0 0 0 0 0 0 0 0 0 1 3 5 9 17 23 26 27 26 27 25 21 17 15 13 12 11 9 7 4 2 2 1 0 0 0 0 0 0 0 0 0 0 0 0 0 0 0
0 0 0 0 0 0 0 0 0 0 0 0 2 5 10 15 19 22 23 23 23 22 21 20 18 15 13 11 9 8 5 2 1 1 0 0 0 0 0 0 0 0 0 0 0 0 0 0 0
0 0 0 0 0 0 0 0 0 0 0 0 1 4 9 12 13 16 20 21 20 19 20 22 22 19 15 12 9 7 6 4 3 1 1 0 0 0 0 0 0 0 0 0 0 0 0 0 0
0 0 0 0 0 0 0 0 0 0 0 0 1 3 6 7 8 11 16 18 17 16 19 23 25 22 17 12 9 7 6 5 4 4 2 1 0 0 0 0 0 0 0 0 0 0 0 0 0
0 0 0 0 0 0 0 0 0 0 0 0 2 3 3 3 5 8 11 13 14 15 18 22 23 20 16 11 9 8 6 6 5 5 3 1 1 1 0 0 0 0 0 0 0 0 0 0 0
0 0 0 0 0 0 0 0 0 0 0 1 2 3 2 1 3 4 6 8 11 13 15 17 16 14 11 10 10 9 7 5 4 3 2 2 2 2 1 0 0 0 0 0 0 0 0 0 0
0 0 0 0 0 0 0 0 0 0 0 1 1 1 2 2 2 3 4 6 8 11 12 12 10 8 8 9 9 8 7 5 2 0 1 2 2 3 2 1 0 0 0 0 0 0 0 0 0
0 0 0 0 0 0 0 0 0 0 0 0 1 2 2 3 2 3 4 6 7 8 9 8 6 5 6 8 8 7 5 3 2 1 1 2 3 3 2 1 0 0 0 0 0 0 0 0 0
0 0 0 0 0 0 0 0 0 0 0 0 1 3 3 2 2 3 4 6 7 7 7 6 5 4 5 6 6 4 2 3 2 1 1 1 2 2 1 0 0 0 0 0 0 0 0 0 0
0 0 0 0 0 0 0 0 0 0 0 0 1 3 2 1 2 3 4 5 5 4 4 6 6 4 3 3 3 1 1 2 2 1 0 0 1 1 0 0 0 0 0 0 0 0 0 0 0
0 0 0 0 0 0 0 0 0 0 0 0 1 2 1 1 3 4 4 4 3 2 2 5 6 5 3 2 1 0 1 1 1 0 0 0 0 0 0 0 0 0 0 0 0 0 0 0 0
0 0 0 0 0 0 0 0 0 0 0 0 0 0 0 0 2 4 3 2 1 1 1 3 4 3 3 2 1 1 0 0 0 0 0 0 0 0 0 0 0 0 0 0 0 0 0 0 0
0 0 0 0 0 0 0 0 0 0 0 0 0 0 0 0 2 2 1 1 0 0 1 2 2 2 2 2 2 1 0 0 0 0 0 0 0 0 0 0 0 0 0 0 0 0 0 0 0
0 0 0 0 0 0 0 0 0 0 0 0 0 0 0 1 2 1 0 0 0 0 1 1 1 1 1 2 2 1 0 0 0 0 0 0 0 0 0 0 0 0 0 0 0 0 0 0 0
0 0 0 0 0 0 0 0 0 0 0 0 0 0 0 0 1 0 0 0 0 1 1 1 0 0 0 1 1 1 0 0 0 0 0 0 0 0 0 0 0 0 0 0 0 0 0 0 0
0 0 0 0 0 0 0 0 0 0 0 0 0 0 0 0 0 0 0 0 0 1 1 1 0 0 0 0 0 0 0 0 0 0 0 0 0 0 0 0 0 0 0 0 0 0 0 0 0
0 0 0 0 0 0 0 0 0 0 0 0 0 0 0 0 0 0 0 0 0 0 1 0 0 0 0 0 0 0 0 0 0 0 0 0 0 0 0 0 0 0 0 0 0 0 0 0 0
0 0 0 0 0 0 0 0 0 0 0 0 0 0 0 0 0 0 0 0 0 0 1 0 0 1 1 0 0 0 0 0 0 0 0 0 0 0 0 0 0 0 0 0 0 0 0 0 0
0 0 0 0 0 0 0 0 0 0 0 0 0 0 0 0 0 0 0 0 0 0 0 0 0 0 1 1 1 0 0 0 0 0 0 0 0 0 0 0 0 0 0 0 0 0 0 0 0
0 0 0 0 0 0 0 0 0 0 0 0 0 0 0 0 0 0 0 0 0 0 0 0 0 0 0 0 1 1 1 1 1 1 1 1 1 0 0 0 0 0 0 0 0 0 0 0 0
0 0 0 0 0 0 0 0 0 0 0 0 0 0 0 0 0 0 0 0 0 0 0 0 0 0 0 0 0 1 1 2 2 2 2 2 2 1 0 0 0 0 0 0 0 0 0 0 0
Wind_Speed
9 9 6 2 3 5 10 7 6 4 3 1 2 2 1 3 2 5 4 8 13 14 13 13 12 12 12 12 13 13 13 12 12 12 12 13 13 13 13 13 14 14 14 14 14 14 14 14 14
8 7 4 3 5 8 8 8 8 5 1 2 2 2 2 4 6 7 5 9 13 13 12 12 12 13 12 12 12 13 13 13 12 12 12 12 12 12 13 13 13 14 14 13 13 13 13 13 13
10 8 4 4 6 9 7 5 5 2 2 2 1 1 2 4 6 5 6 11 12 11 11 12 13 13 13 12 12 13 13 13 12 12 12 12 12 12 13 13 13 13 13 13 13 13 12 12 12
5 4 4 6 12 10 9 5 2 2 2 2 1 2 3 4 4 6 9 11 12 11 11 12 13 14 13 13 12 12 13 13 12 12 12 12 12 13 12 13 13 12 12 12 12 12 12 12 11
4 4 6 9 13 11 8 6 2 2 3 3 3 2 3 4 8 9 9 11 12 11 11 12 13 14 13 13 12 12 13 13 13 12 12 12 12 12 12 12 12 12 12 12 12 12 11 11 10
4 4 7 11 13 11 10 6 2 2 2 3 3 2 3 4 7 7 8 9 11 11 11 11 12 13 13 13 12 11 12 12 12 12 12 12 12 12 12 11 11 11 11 11 11 11 10 10 9
5 5 9 11 10 11 10 6 4 4 4 4 2 2 4 4 6 6 7 8 10 11 11 9 9 10 12 12 12 11 12 12 12 12 11 11 12 12 12 11 10 10 10 10 10 10 10 9 8
5 4 9 11 12 11 7 5 3 3 3 2 1 2 4 6 6 6 7 8 9 9 9 9 9 8 8 8 11 11 12 12 12 11 10 10 10 11 11 10 10 9 9 10 10 9 9 7 6
4 6 11 11 9 7 4 4 2 1 2 1 1 2 6 10 8 7 7 7 7 8 8 8 8 8 8 7 10 10 11 11 11 9 9 8 5 6 6 8 9 9 9 9 9 8 7 5 3
5 9 13 9 7 6 6 4 2 1 2 2 2 5 9 9 9 9 8 8 8 8 7 7 8 8 7 7 6 5 6 6 5 5 5 3 4 4 6 7 8 9 8 7 6 6 4 3 1
6 9 8 8 7 8 6 4 3 3 4 3 4 6 10 9 8 8 8 8 8 8 7 7 7 7 7 5 4 3 3 4 4 5 4 4 4 4 4 3 4 4 4 2 2 2 1 2 1
8 10 9 7 6 7 6 5 4 4 3 1 5 7 8 9 9 8 8 8 8 8 7 7 7 6 6 5 4 4 3 3 3 3 4 4 3 3 3 2 2 2 2 1 1 1 2 2 2
11 10 10 8 7 6 7 6 4 4 3 1 4 7 8 8 8 7 6 7 7 8 7 7 7 7 5 5 3 4 3 3 3 3 3 4 3 3 3 2 2 2 2 1 1 2 2 2 2
7 8 8 8 8 6 6 8 5 5 2 2 4 6 7 7 6 6 5 6 7 7 7 7 7 6 6 4 3 4 4 3 4 3 4 4 3 3 3 3 2 2 2 1 1 2 2 2 2
7 8 8 8 7 5 4 9 8 4 2 3 4 4 6 5 6 6 6 6 7 8 7 7 6 6 6 5 4 3 4 4 3 3 4 4 4 4 4 3 2 2 2 2 2 2 2 2 2
6 6 6 7 7 5 5 10 6 3 3 4 4 4 4 5 5 5 5 6 6 7 8 7 6 6 6 5 4 3 4 4 3 3 3 4 4 4 4 3 3 2 2 2 2 2 1 1 1
5 6 7 6 8 6 8 8 5 3 4 4 3 3 3 3 3 3 4 6 6 7 7 7 7 6 5 5 3 4 4 4 3 3 3 3 4 4 4 3 3 3 2 2 2 2 1 1 1
4 5 7 7 6 8 9 7 5 4 5 5 4 4 3 3 3 3 3 4 6 6 7 7 6 6 5 4 4 4 4 3 3 3 3 4 3 4 4 3 3 3 2 2 2 2 2 1 1
5 6 8 7 5 8 9 9 6 4 5 4 4 3 3 2 2 2 2 3 5 5 6 7 6 6 5 4 4 4 3 3 3 3 4 4 3 4 3 3 3 3 2 2 2 2 2 1 1
6 7 7 5 5 5 7 8 5 4 5 4 4 4 3 2 2 2 2 3 4 4 6 6 6 6 5 4 3 3 3 3 3 3 3 3 3 3 3 3 3 2 2 2 2 2 1 1 1
6 7 5 4 4 5 4 6 6 4 3 3 3 3 3 3 3 3 3 3 4 3 4 4 5 5 5 6 4 4 3 3 2 3 2 2 3 3 3 3 3 3 3 2 2 2 2 1 0
6 5 5 4 3 3 4 4 6 6 5 5 4 3 3 3 2 3 3 3 4 4 3 4 4 5 5 6 6 7 5 4 3 3 3 3 3 3 3 3 3 3 2 2 2 1 1 2 1
4 4 5 5 4 3 4 4 4 6 6 5 4 3 3 3 3 3 3 3 3 4 3 3 4 4 4 5 6 6 5 4 3 3 4 4 3 3 3 3 3 3 2 2 2 2 1 1 1
4 2 3 3 2 5 7 5 4 4 6 5 4 3 2 2 2 2 3 3 2 3 3 3 4 3 4 4 4 5 6 6 5 4 4 4 3 3 4 4 3 3 2 2 2 2 2 1 1
1 1 1 1 3 4 5 4 4 4 3 3 3 4 3 2 2 2 3 2 2 3 3 3 4 3 3 4 3 3 4 5 6 5 5 4 3 3 4 4 3 3 3 2 2 2 2 2 1
2 0 1 1 2 2 3 4 2 0 3 3 3 3 3 2 2 2 2 2 2 2 3 3 3 3 2 3 3 3 3 3 3 4 4 4 4 3 4 4 4 4 3 3 2 2 2 2 1
1 0 2 2 2 2 3 3 1 1 2 3 3 3 2 1 1 1 1 2 2 2 2 3 3 3 2 2 3 3 3 3 3 3 3 3 3 3 4 4 4 3 3 3 3 2 2 2 1
2 1 1 1 1 2 3 3 1 1 2 2 1 1 1 1 2 1 1 2 2 2 2 2 2 2 2 2 2 2 2 2 3 3 3 3 3 3 4 4 4 4 3 3 3 2 2 2 1
1 1 1 2 2 1 2 1 2 2 1 2 2 1 2 2 2 2 1 2 1 2 2 2 2 3 2 1 2 2 2 2 2 3 3 3 3 4 4 4 4 4 3 3 3 2 2 2 1
1 1 0 1 3 2 1 2 3 3 2 3 3 2 2 3 3 2 2 2 2 2 2 2 2 2 2 1 2 2 3 3 3 2 2 3 3 3 3 3 4 4 3 3 3 3 2 2 2
Wind_Direction
289 271 258 245 232 227 233 235 251 250 247 285 346 337 27 13 30 113 138 119 117 128 134 136 131 129 127 126 127 123 120 117 116 114 112 109 106 103 101 98 95 93 91 88 85 83 83 81 79
280 270 252 234 230 228 229 224 241 244 218 46 18 357 24 65 74 105 123 120 124 130 134 135 131 130 128 126 127 125 122 118 116 115 114 112 110 108 104 101 97 94 91 89 86 84 83 82 80
266 255 240 225 228 231 238 218 226 219 137 109 84 27 21 79 95 112 123 126 122 126 130 130 131 132 130 128 126 127 123 120 117 116 114 113 112 109 105 102 98 95 93 90 88 85 83 81 78
251 229 236 234 232 231 248 252 223 200 148 134 147 122 83 55 87 115 127 126 123 125 125 130 131 131 131 130 125 125 124 122 120 117 115 113 111 108 104 102 100 98 95 93 91 87 84 80 77
240 229 220 229 237 243 250 254 217 210 174 177 199 164 90 57 95 119 129 127 126 126 127 132 129 130 130 127 126 124 124 123 122 119 116 113 111 109 106 104 102 100 98 96 93 90 86 82 76
229 230 224 224 228 235 244 247 218 213 210 197 199 206 106 105 108 125 128 127 126 125 128 131 128 127 126 125 122 120 123 124 122 120 119 116 112 110 109 106 104 102 101 98 95 92 87 82 75
234 227 236 237 233 232 235 235 216 213 205 220 206 172 128 124 117 127 127 125 124 125 128 132 131 125 122 121 120 117 118 118 120 119 117 115 113 111 109 107 106 105 103 100 97 93 89 84 77
251 251 239 237 238 237 232 234 217 208 229 220 216 157 155 143 133 129 126 122 124 127 133 139 139 133 127 122 117 117 118 115 113 113 113 112 111 109 105 102 104 106 105 103 99 96 93 88 79
255 236 231 227 237 246 246 238 235 214 239 236 66 55 122 135 135 131 128 124 127 132 138 142 141 137 132 131 125 121 118 116 115 114 120 118 111 108 103 102 101 102 106 107 105 104 101 98 86
218 227 232 237 258 276 270 243 209 193 224 216 107 93 122 139 146 151 152 149 147 145 146 145 143 139 137 136 133 135 131 132 127 130 127 114 108 108 110 104 105 103 101 106 114 115 118 109 92
223 233 245 253 274 291 287 273 217 201 225 208 172 148 147 155 162 166 166 160 156 151 146 142 138 138 135 132 139 139 136 137 131 132 125 110 104 109 109 108 102 105 110 103 126 137 106 92 76
240 246 249 257 276 289 287 283 255 229 244 200 166 159 160 167 174 176 174 164 154 149 146 143 139 134 133 133 139 139 131 128 127 129 121 115 115 114 121 118 119 122 100 91 80 70 67 77 71
238 244 249 256 266 269 279 264 254 252 248 184 157 157 173 180 180 178 171 158 153 151 149 146 141 135 129 124 137 133 127 126 125 121 117 113 114 119 121 116 114 102 99 101 87 72 61 56 46
249 257 253 254 260 253 265 269 246 237 228 189 175 171 181 183 175 167 165 162 158 152 147 142 139 138 134 129 127 130 127 125 120 118 119 116 116 115 109 100 98 94 95 81 78 78 77 59 40
246 253 248 239 243 241 255 254 234 227 214 209 186 183 182 176 172 174 171 168 158 153 145 140 140 138 136 131 126 124 126 121 117 119 118 113 111 115 113 109 96 93 87 78 66 51 59 63 45
230 234 236 229 226 230 225 240 228 219 206 220 202 191 191 183 172 170 163 159 151 147 146 142 141 138 138 131 123 124 120 116 117 114 110 110 111 112 112 113 107 96 85 80 80 74 60 55 47
216 223 231 229 213 219 222 239 232 213 201 215 211 206 197 185 169 154 152 148 148 146 145 141 142 144 133 126 122 119 111 111 116 114 110 112 114 113 111 114 116 108 95 86 83 69 76 59 29
220 226 232 233 212 220 227 237 225 200 197 204 211 209 200 187 169 149 141 141 145 146 141 140 140 135 129 121 119 110 107 110 107 112 118 119 119 115 113 115 113 108 102 90 87 80 65 70 353
247 241 245 249 226 232 229 233 223 196 190 196 200 212 208 190 141 131 126 120 134 138 141 144 144 143 135 134 133 136 135 125 114 115 118 122 120 117 119 120 117 113 116 118 107 97 88 50 25
251 248 245 256 246 244 242 243 229 212 194 186 191 201 212 188 146 133 122 117 129 151 151 147 151 156 152 151 144 136 133 124 119 115 112 123 123 125 127 124 130 124 119 113 102 99 99 68 63
258 246 242 244 279 252 247 245 220 209 202 192 188 185 185 189 179 171 153 135 136 147 154 158 164 157 152 142 128 116 106 107 121 129 135 135 132 130 129 134 134 133 131 136 132 119 110 147 296
258 262 255 241 238 251 223 238 221 197 199 207 203 193 190 191 171 164 153 152 156 160 153 149 155 152 150 145 150 152 153 159 165 157 151 136 131 133 135 137 136 134 135 138 148 136 119 132 168
271 283 263 240 240 256 229 227 232 193 208 207 188 186 197 182 167 165 156 158 160 145 139 151 147 152 153 155 161 160 155 149 138 139 145 147 143 142 144 151 146 148 149 150 153 140 121 138 148
282 273 288 260 235 238 222 209 235 209 208 203 192 172 172 156 143 131 126 120 124 122 125 138 146 155 150 154 162 160 154 150 146 157 161 157 154 155 155 156 155 156 160 160 157 154 150 153 144
329 69 39 230 204 227 208 211 228 211 177 169 169 160 150 135 125 111 111 106 102 121 130 136 146 152 155 157 160 158 157 155 162 167 169 161 160 166 169 160 166 166 168 163 158 158 170 166 156
264 246 202 239 223 255 206 212 224 171 117 118 120 124 132 116 113 111 123 122 118 125 133 140 146 149 152 156 163 156 150 153 165 170 167 171 167 169 166 165 167 169 165 162 165 162 174 152 155
293 234 273 294 282 259 215 196 204 79 81 98 96 93 116 128 120 111 111 121 121 130 129 144 146 139 150 164 156 157 158 157 159 156 154 157 155 157 154 157 164 164 161 168 170 170 173 153 153
300 318 333 277 267 259 229 205 203 103 24 64 115 119 115 121 111 94 84 82 109 125 123 124 131 125 134 156 156 151 142 145 154 149 153 151 147 144 150 158 162 162 165 168 160 161 159 149 174
291 255 282 271 268 252 249 244 16 95 57 16 22 56 39 71 93 96 73 64 90 117 118 125 126 107 103 125 135 129 129 125 130 143 144 144 144 148 153 161 163 164 169 163 158 165 156 163 178
289 268 273 245 277 267 257 279 4 51 65 41 25 35 47 63 56 57 69 65 58 81 93 92 110 116 124 123 101 101 108 114 116 125 140 146 150 150 155 159 158 161 167 168 163 167 167 175 189